Total_Precipitation_Accumulation
0.04 0.05 0.06 0.07 0.09 0.11 0.12 0.13 0.14 0.15 0.16 0.17 0.18 0.20 0.23 0.25 0.28 0.30 0.31 0.33 0.37 0.36 0.34 0.30 0.28 0.28 0.29 0.31 0.36 0.39 0.40 0.41 0.41 0.44 0.51 0.63 0.63 0.61 0.60 0.59 0.60 0.62 0.64 0.67 0.69 0.72 0.74 0.76 0.77 0.94 1.09 1.07 1.09 1.10 1.11 1.10 1.07 1.05 1.03 1.03 1.01 0.98 0.96 0.98 0.93 0.85 0.78 0.77 0.78
0.06 0.06 0.07 0.10 0.12 0.15 0.17 0.20 0.23 0.26 0.29 0.32 0.32 0.31 0.30 0.30 0.36 0.38 0.39 0.40 0.41 0.41 0.39 0.34 0.33 0.33 0.34 0.35 0.35 0.35 0.34 0.32 0.33 0.36 0.41 0.50 0.54 0.58 0.61 0.64 0.68 0.73 0.77 0.78 0.80 0.81 0.83 0.87 1.07 1.18 1.21 1.19 1.21 1.26 1.26 1.15 1.20 1.21 1.19 1.16 1.14 1.10 1.05 1.00 0.89 0.79 0.72 0.69 0.64
0.04 0.06 0.08 0.13 0.15 0.18 0.22 0.25 0.27 0.30 0.33 0.32 0.31 0.30 0.29 0.31 0.36 0.40 0.42 0.41 0.41 0.40 0.39 0.40 0.39 0.39 0.38 0.36 0.34 0.32 0.30 0.30 0.30 0.31 0.32 0.34 0.36 0.40 0.45 0.50 0.58 0.69 0.80 0.86 0.92 0.97 1.02 1.06 1.15 1.20 1.21 1.19 1.25 1.30 1.28 1.13 1.24 1.32 1.34 1.26 1.08 1.04 1.04 0.97 0.87 0.81 0.78 0.77 0.72
0.02 0.02 0.04 0.09 0.11 0.13 0.15 0.18 0.22 0.25 0.27 0.25 0.26 0.27 0.28 0.29 0.32 0.33 0.33 0.30 0.27 0.25 0.25 0.27 0.26 0.27 0.28 0.29 0.24 0.24 0.27 0.28 0.30 0.33 0.35 0.38 0.42 0.43 0.44 0.47 0.54 0.63 0.73 0.87 0.93 0.99 1.05 1.10 1.14 1.16 1.15 1.09 1.06 1.06 1.03 0.96 1.01 1.09 1.10 0.94 0.94 0.98 0.99 0.90 0.86 0.84 0.84 0.85 0.97
0.01 0.01 0.01 0.04 0.06 0.08 0.08 0.09 0.10 0.12 0.15 0.18 0.21 0.23 0.24 0.25 0.26 0.24 0.21 0.17 0.15 0.13 0.13 0.14 0.15 0.16 0.16 0.13 0.14 0.15 0.17 0.19 0.23 0.27 0.31 0.38 0.47 0.52 0.56 0.63 0.72 0.78 0.85 0.97 1.05 1.08 1.13 1.26 1.25 1.21 1.15 1.07 0.99 0.92 0.86 0.81 0.95 0.99 0.99 0.99 0.99 0.96 0.95 0.99 0.96 0.96 1.00 1.06 1.49
0.00 0.00 0.00 0.01 0.01 0.02 0.04 0.06 0.09 0.12 0.14 0.15 0.18 0.20 0.19 0.16 0.13 0.12 0.11 0.10 0.10 0.10 0.10 0.10 0.10 0.12 0.15 0.17 0.20 0.20 0.20 0.23 0.26 0.30 0.35 0.40 0.49 0.55 0.60 0.66 0.74 0.85 0.96 1.07 1.17 1.22 1.27 1.33 1.40 1.43 1.39 1.20 1.09 0.99 0.91 0.85 0.94 0.99 1.03 1.12 1.01 0.98 1.00 1.07 1.26 1.41 1.54 1.69 1.73
0.00 0.00 0.00 0.00 0.01 0.02 0.03 0.04 0.06 0.08 0.09 0.08 0.07 0.06 0.06 0.05 0.05 0.06 0.07 0.08 0.10 0.12 0.14 0.13 0.20 0.24 0.25 0.26 0.26 0.26 0.27 0.30 0.34 0.39 0.43 0.47 0.51 0.59 0.67 0.71 0.77 0.83 0.91 1.00 1.16 1.22 1.27 1.37 1.45 1.48 1.47 1.43 1.36 1.27 1.19 1.14 1.12 1.23 1.32 1.20 1.14 1.13 1.16 1.27 1.44 1.63 1.75 1.73 1.30
0.00 0.00 0.00 0.00 0.00 0.01 0.01 0.02 0.03 0.04 0.05 0.06 0.06 0.05 0.05 0.04 0.04 0.05 0.06 0.08 0.11 0.13 0.15 0.19 0.25 0.27 0.27 0.26 0.25 0.24 0.26 0.28 0.30 0.34 0.38 0.42 0.46 0.55 0.63 0.67 0.71 0.77 0.82 0.84 0.99 1.08 1.13 1.21 1.26 1.29 1.30 1.31 1.42 1.42 1.38 1.32 1.31 1.42 1.51 1.46 1.42 1.42 1.43 1.44 1.39 1.37 1.32 1.21 0.99
0.00 0.00 0.00 0.00 0.01 0.01 0.01 0.02 0.03 0.04 0.06 0.07 0.08 0.09 0.08 0.07 0.04 0.04 0.05 0.07 0.09 0.11 0.15 0.20 0.24 0.27 0.29 0.28 0.27 0.25 0.23 0.21 0.22 0.25 0.28 0.32 0.37 0.42 0.46 0.49 0.55 0.62 0.68 0.75 0.75 0.84 0.94 0.98 1.01 1.03 1.05 1.05 1.11 1.18 1.26 1.34 1.36 1.42 1.50 1.54 1.39 1.33 1.31 1.29 1.26 1.21 1.13 1.01 0.94
0.00 0.00 0.00 0.00 0.00 0.01 0.01 0.01 0.02 0.04 0.05 0.06 0.07 0.08 0.08 0.07 0.05 0.04 0.05 0.06 0.09 0.12 0.16 0.19 0.24 0.27 0.28 0.28 0.26 0.23 0.21 0.19 0.21 0.24 0.25 0.26 0.29 0.29 0.31 0.37 0.44 0.49 0.55 0.61 0.59 0.61 0.65 0.70 0.73 0.76 0.78 0.78 0.82 0.90 1.00 1.11 0.95 0.95 1.02 1.08 1.08 1.08 1.08 1.06 1.08 1.07 1.03 0.97 0.96
0.00 0.00 0.00 0.00 0.00 0.00 0.01 0.01 0.01 0.01 0.02 0.03 0.05 0.05 0.06 0.06 0.05 0.05 0.07 0.09 0.12 0.13 0.13 0.12 0.16 0.18 0.18 0.19 0.18 0.17 0.17 0.17 0.20 0.21 0.21 0.22 0.22 0.24 0.29 0.35 0.41 0.46 0.47 0.37 0.35 0.34 0.36 0.42 0.45 0.48 0.49 0.51 0.56 0.61 0.68 0.80 0.67 0.67 0.73 0.76 0.76 0.75 0.73 0.72 0.74 0.81 0.84 0.76 0.81
0.00 0.00 0.00 0.00 0.00 0.01 0.01 0.01 0.01 0.02 0.03 0.04 0.06 0.07 0.07 0.07 0.06 0.07 0.09 0.13 0.14 0.12 0.09 0.06 0.06 0.07 0.09 0.11 0.13 0.15 0.16 0.17 0.16 0.17 0.19 0.22 0.24 0.28 0.31 0.36 0.42 0.41 0.35 0.22 0.21 0.21 0.23 0.24 0.26 0.28 0.30 0.33 0.37 0.41 0.46 0.51 0.46 0.48 0.52 0.55 0.53 0.53 0.53 0.52 0.56 0.63 0.70 0.72 0.77
0.00 0.00 0.00 0.01 0.01 0.02 0.02 0.02 0.03 0.04 0.05 0.07 0.08 0.09 0.10 0.09 0.09 0.11 0.12 0.12 0.11 0.10 0.08 0.06 0.06 0.08 0.09 0.10 0.13 0.15 0.17 0.19 0.17 0.20 0.24 0.28 0.33 0.36 0.38 0.41 0.34 0.25 0.19 0.18 0.19 0.20 0.20 0.21 0.21 0.22 0.23 0.24 0.27 0.29 0.31 0.29 0.32 0.35 0.39 0.44 0.47 0.50 0.52 0.53 0.56 0.67 0.77 0.80 0.80
0.00 0.00 0.01 0.01 0.02 0.02 0.03 0.04 0.05 0.06 0.07 0.09 0.10 0.11 0.12 0.12 0.13 0.14 0.14 0.12 0.10 0.09 0.09 0.08 0.08 0.10 0.13 0.12 0.13 0.16 0.19 0.24 0.24 0.29 0.35 0.39 0.41 0.40 0.36 0.29 0.23 0.20 0.19 0.19 0.21 0.21 0.20 0.20 0.20 0.21 0.21 0.22 0.24 0.26 0.27 0.25 0.27 0.30 0.35 0.40 0.47 0.54 0.61 0.66 0.69 0.78 0.84 0.82 0.78
0.00 0.00 0.01 0.02 0.02 0.03 0.04 0.05 0.06 0.07 0.08 0.10 0.10 0.11 0.12 0.13 0.15 0.18 0.20 0.18 0.14 0.13 0.13 0.12 0.11 0.12 0.14 0.14 0.15 0.19 0.25 0.33 0.37 0.41 0.41 0.37 0.32 0.27 0.23 0.19 0.17 0.17 0.19 0.19 0.20 0.20 0.20 0.20 0.20 0.20 0.20 0.21 0.21 0.23 0.24 0.24 0.28 0.35 0.42 0.49 0.54 0.61 0.68 0.75 0.78 0.74 0.67 0.61 0.60
0.00 0.00 0.01 0.02 0.02 0.04 0.05 0.07 0.08 0.09 0.09 0.10 0.10 0.11 0.12 0.13 0.15 0.21 0.26 0.27 0.25 0.24 0.22 0.18 0.16 0.15 0.15 0.18 0.23 0.28 0.34 0.40 0.42 0.36 0.28 0.22 0.20 0.19 0.18 0.16 0.16 0.17 0.18 0.19 0.18 0.17 0.17 0.16 0.16 0.16 0.16 0.17 0.18 0.22 0.27 0.31 0.37 0.43 0.50 0.56 0.57 0.59 0.62 0.65 0.61 0.54 0.48 0.47 0.46
0.00 0.00 0.01 0.02 0.03 0.04 0.06 0.08 0.09 0.10 0.10 0.10 0.11 0.12 0.13 0.14 0.15 0.19 0.25 0.30 0.34 0.35 0.33 0.29 0.24 0.21 0.22 0.28 0.35 0.37 0.34 0.30 0.26 0.23 0.20 0.16 0.16 0.16 0.16 0.16 0.16 0.16 0.17 0.17 0.16 0.15 0.14 0.13 0.13 0.12 0.13 0.16 0.20 0.28 0.36 0.41 0.45 0.48 0.48 0.47 0.46 0.45 0.43 0.43 0.35 0.34 0.37 0.40 0.41
0.00 0.00 0.01 0.01 0.03 0.04 0.06 0.08 0.10 0.11 0.11 0.12 0.12 0.12 0.13 0.14 0.14 0.17 0.21 0.26 0.31 0.36 0.40 0.40 0.36 0.33 0.32 0.36 0.36 0.32 0.26 0.21 0.18 0.16 0.15 0.13 0.14 0.15 0.15 0.15 0.15 0.15 0.15 0.16 0.16 0.15 0.15 0.15 0.15 0.15 0.17 0.20 0.27 0.34 0.38 0.39 0.40 0.40 0.39 0.37 0.35 0.33 0.31 0.30 0.32 0.34 0.36 0.40 0.41
0.01 0.01 0.01 0.01 0.02 0.04 0.06 0.08 0.10 0.12 0.14 0.15 0.15 0.15 0.16 0.16 0.15 0.16 0.19 0.23 0.28 0.34 0.41 0.48 0.47 0.45 0.41 0.34 0.30 0.26 0.23 0.20 0.18 0.16 0.16 0.15 0.15 0.15 0.14 0.13 0.13 0.14 0.15 0.16 0.17 0.18 0.19 0.18 0.20 0.23 0.26 0.29 0.30 0.30 0.30 0.29 0.31 0.33 0.34 0.34 0.33 0.33 0.33 0.32 0.35 0.35 0.35 0.36 0.37
0.01 0.02 0.02 0.02 0.02 0.03 0.04 0.06 0.09 0.14 0.17 0.19 0.20 0.21 0.21 0.21 0.19 0.19 0.20 0.23 0.28 0.35 0.43 0.52 0.52 0.48 0.41 0.29 0.27 0.26 0.25 0.24 0.22 0.22 0.21 0.18 0.18 0.17 0.16 0.16 0.16 0.17 0.18 0.19 0.21 0.22 0.22 0.22 0.23 0.25 0.27 0.28 0.31 0.32 0.32 0.32 0.33 0.35 0.36 0.36 0.36 0.36 0.35 0.29 0.29 0.28 0.28 0.28 0.29
0.01 0.01 0.02 0.03 0.03 0.04 0.05 0.07 0.10 0.16 0.21 0.23 0.25 0.27 0.28 0.28 0.27 0.25 0.25 0.28 0.35 0.41 0.47 0.52 0.49 0.45 0.38 0.30 0.29 0.30 0.31 0.31 0.29 0.26 0.24 0.23 0.22 0.20 0.20 0.22 0.22 0.22 0.23 0.26 0.26 0.26 0.26 0.25 0.26 0.27 0.29 0.33 0.35 0.35 0.34 0.33 0.32 0.32 0.31 0.31 0.30 0.30 0.28 0.24 0.23 0.22 0.22 0.22 0.22
0.01 0.02 0.02 0.03 0.04 0.06 0.08 0.10 0.12 0.20 0.26 0.28 0.30 0.32 0.35 0.37 0.34 0.30 0.30 0.37 0.42 0.46 0.49 0.52 0.50 0.46 0.42 0.35 0.32 0.32 0.33 0.33 0.30 0.30 0.32 0.31 0.29 0.25 0.22 0.23 0.25 0.28 0.31 0.34 0.33 0.32 0.33 0.34 0.34 0.34 0.34 0.32 0.31 0.30 0.28 0.27 0.27 0.27 0.27 0.26 0.25 0.24 0.24 0.24 0.22 0.21 0.20 0.20 0.19
0.03 0.03 0.04 0.04 0.05 0.07 0.09 0.12 0.18 0.24 0.30 0.33 0.36 0.39 0.43 0.46 0.43 0.40 0.40 0.47 0.48 0.50 0.53 0.58 0.56 0.52 0.47 0.40 0.34 0.31 0.31 0.33 0.36 0.37 0.36 0.34 0.33 0.30 0.27 0.28 0.32 0.35 0.37 0.39 0.39 0.39 0.39 0.39 0.34 0.31 0.30 0.29 0.29 0.29 0.27 0.26 0.25 0.26 0.27 0.25 0.24 0.24 0.25 0.24 0.23 0.22 0.21 0.21 0.20
0.05 0.06 0.06 0.06 0.07 0.08 0.09 0.10 0.18 0.24 0.29 0.33 0.37 0.42 0.47 0.52 0.53 0.54 0.55 0.59 0.59 0.59 0.59 0.61 0.61 0.58 0.53 0.46 0.36 0.33 0.33 0.36 0.38 0.39 0.39 0.38 0.38 0.37 0.36 0.35 0.35 0.34 0.34 0.33 0.32 0.32 0.33 0.35 0.33 0.30 0.28 0.29 0.29 0.28 0.27 0.26 0.26 0.26 0.26 0.25 0.24 0.26 0.28 0.26 0.25 0.24 0.23 0.23 0.23
0.08 0.08 0.08 0.09 0.09 0.09 0.09 0.11 0.16 0.20 0.22 0.25 0.32 0.37 0.44 0.51 0.57 0.61 0.65 0.71 0.71 0.69 0.67 0.64 0.67 0.67 0.65 0.60 0.51 0.44 0.41 0.41 0.42 0.43 0.44 0.46 0.44 0.42 0.40 0.37 0.34 0.32 0.31 0.29 0.25 0.24 0.23 0.23 0.25 0.24 0.23 0.26 0.27 0.28 0.28 0.26 0.27 0.27 0.27 0.27 0.28 0.30 0.32 0.30 0.28 0.26 0.24 0.23 0.22
0.12 0.12 0.11 0.11 0.11 0.11 0.11 0.11 0.11 0.12 0.14 0.17 0.23 0.30 0.37 0.43 0.51 0.58 0.67 0.79 0.84 0.81 0.77 0.79 0.80 0.82 0.82 0.74 0.76 0.67 0.57 0.54 0.51 0.49 0.48 0.47 0.47 0.45 0.42 0.39 0.35 0.33 0.31 0.26 0.23 0.20 0.18 0.17 0.16 0.16 0.19 0.25 0.28 0.29 0.29 0.28 0.28 0.28 0.29 0.30 0.32 0.33 0.34 0.35 0.32 0.30 0.27 0.25 0.23
0.15 0.13 0.11 0.09 0.09 0.08 0.08 0.07 0.07 0.08 0.10 0.12 0.16 0.20 0.25 0.33 0.40 0.48 0.61 0.78 0.90 0.95 0.96 0.96 1.01 1.03 1.07 1.18 1.04 0.92 0.79 0.66 0.61 0.56 0.52 0.49 0.47 0.45 0.43 0.40 0.38 0.34 0.30 0.25 0.21 0.18 0.15 0.14 0.15 0.17 0.20 0.24 0.26 0.28 0.30 0.31 0.30 0.30 0.31 0.32 0.33 0.33 0.32 0.32 0.32 0.32 0.31 0.28 0.26
0.21 0.17 0.13 0.10 0.09 0.07 0.06 0.06 0.07 0.08 0.08 0.09 0.11 0.14 0.18 0.22 0.28 0.36 0.46 0.57 0.85 1.00 1.07 1.12 1.22 1.44 1.60 1.50 1.21 0.99 0.84 0.73 0.68 0.64 0.61 0.57 0.52 0.48 0.45 0.43 0.40 0.37 0.33 0.26 0.22 0.18 0.16 0.19 0.19 0.20 0.22 0.26 0.30 0.32 0.33 0.32 0.31 0.31 0.32 0.33 0.34 0.34 0.34 0.34 0.34 0.34 0.33 0.31 0.28
0.27 0.24 0.20 0.15 0.12 0.09 0.07 0.07 0.08 0.08 0.07 0.07 0.09 0.11 0.14 0.19 0.22 0.28 0.35 0.47 0.77 1.00 1.15 1.21 1.40 1.61 1.70 1.49 1.15 0.96 0.85 0.74 0.71 0.69 0.67 0.66 0.64 0.60 0.54 0.47 0.42 0.38 0.34 0.27 0.24 0.22 0.23 0.28 0.26 0.25 0.26 0.29 0.37 0.42 0.43 0.40 0.36 0.34 0.35 0.36 0.33 0.32 0.33 0.35 0.33 0.32 0.32 0.32 0.30
0.30 0.30 0.27 0.22 0.16 0.13 0.11 0.10 0.10 0.09 0.08 0.07 0.08 0.10 0.13 0.17 0.19 0.22 0.27 0.34 0.61 0.66 0.70 0.92 1.24 1.46 1.48 1.24 1.03 0.91 0.84 0.78 0.72 0.69 0.68 0.67 0.65 0.63 0.59 0.51 0.45 0.41 0.38 0.37 0.35 0.38 0.41 0.38 0.35 0.34 0.33 0.36 0.40 0.46 0.50 0.49 0.42 0.39 0.38 0.36 0.33 0.31 0.31 0.32 0.33 0.32 0.30 0.31 0.29
0.26 0.30 0.32 0.31 0.22 0.17 0.14 0.13 0.13 0.12 0.11 0.08 0.08 0.10 0.12 0.16 0.19 0.22 0.26 0.32 0.43 0.52 0.63 0.79 1.06 1.21 1.23 1.13 1.03 0.93 0.84 0.75 0.70 0.66 0.64 0.61 0.60 0.58 0.54 0.49 0.47 0.46 0.46 0.48 0.49 0.53 0.54 0.49 0.46 0.44 0.42 0.42 0.48 0.52 0.53 0.51 0.49 0.44 0.39 0.34 0.31 0.30 0.30 0.31 0.30 0.30 0.29 0.28 0.29
0.20 0.24 0.27 0.29 0.27 0.23 0.19 0.16 0.16 0.15 0.13 0.10 0.09 0.09 0.12 0.17 0.21 0.23 0.25 0.29 0.43 0.54 0.61 0.65 0.78 0.95 1.10 1.18 1.13 1.02 0.89 0.75 0.70 0.63 0.57 0.55 0.55 0.53 0.50 0.46 0.47 0.51 0.55 0.58 0.68 0.71 0.68 0.59 0.55 0.53 0.52 0.52 0.56 0.57 0.57 0.54 0.50 0.47 0.44 0.39 0.32 0.28 0.28 0.29 0.31 0.30 0.28 0.27 0.27
0.14 0.17 0.20 0.23 0.24 0.22 0.20 0.18 0.17 0.17 0.16 0.15 0.13 0.14 0.15 0.17 0.20 0.22 0.24 0.27 0.31 0.39 0.47 0.49 0.55 0.68 0.88 1.13 1.15 1.07 0.94 0.79 0.67 0.59 0.56 0.55 0.55 0.51 0.47 0.44 0.47 0.52 0.58 0.65 0.70 0.72 0.70 0.65 0.63 0.61 0.60 0.59 0.63 0.64 0.62 0.59 0.57 0.55 0.52 0.47 0.41 0.34 0.28 0.26 0.27 0.27 0.27 0.28 0.30
0.10 0.12 0.13 0.15 0.19 0.20 0.20 0.19 0.17 0.18 0.19 0.18 0.17 0.16 0.14 0.14 0.17 0.19 0.21 0.23 0.25 0.33 0.41 0.45 0.47 0.51 0.64 0.90 1.10 1.09 0.97 0.82 0.66 0.60 0.60 0.63 0.60 0.53 0.46 0.43 0.45 0.50 0.56 0.65 0.64 0.65 0.67 0.67 0.70 0.69 0.67 0.67 0.70 0.69 0.66 0.63 0.62 0.57 0.51 0.46 0.41 0.37 0.33 0.29 0.28 0.28 0.28 0.28 0.32
0.08 0.09 0.10 0.10 0.12 0.15 0.17 0.18 0.18 0.19 0.20 0.21 0.18 0.16 0.13 0.13 0.15 0.18 0.21 0.24 0.26 0.35 0.45 0.52 0.54 0.56 0.63 0.80 1.12 1.18 1.08 0.91 0.75 0.65 0.61 0.63 0.61 0.54 0.47 0.41 0.42 0.47 0.54 0.59 0.56 0.57 0.60 0.62 0.65 0.67 0.70 0.75 0.76 0.72 0.66 0.62 0.60 0.54 0.46 0.42 0.40 0.38 0.36 0.35 0.35 0.34 0.33 0.33 0.35
0.07 0.08 0.09 0.08 0.09 0.11 0.14 0.19 0.21 0.21 0.20 0.17 0.15 0.15 0.15 0.15 0.18 0.21 0.23 0.27 0.32 0.39 0.48 0.58 0.65 0.67 0.70 0.80 1.11 1.23 1.20 1.06 0.81 0.68 0.62 0.60 0.58 0.53 0.46 0.41 0.41 0.48 0.55 0.53 0.52 0.53 0.56 0.59 0.60 0.60 0.64 0.78 0.75 0.71 0.66 0.63 0.59 0.53 0.46 0.43 0.41 0.39 0.37 0.37 0.38 0.37 0.38 0.39 0.42
0.06 0.07 0.08 0.09 0.10 0.12 0.15 0.21 0.20 0.17 0.15 0.12 0.14 0.16 0.19 0.20 0.24 0.26 0.27 0.31 0.38 0.42 0.46 0.56 0.64 0.66 0.66 0.71 0.87 1.09 1.24 1.18 0.93 0.75 0.62 0.56 0.55 0.52 0.47 0.39 0.43 0.48 0.51 0.49 0.50 0.51 0.53 0.54 0.52 0.52 0.56 0.68 0.72 0.70 0.67 0.65 0.62 0.57 0.51 0.48 0.45 0.43 0.40 0.39 0.38 0.37 0.38 0.42 0.42
0.05 0.06 0.08 0.11 0.15 0.19 0.19 0.16 0.13 0.11 0.10 0.10 0.15 0.19 0.23 0.27 0.28 0.29 0.29 0.32 0.41 0.43 0.46 0.54 0.60 0.62 0.62 0.64 0.73 0.99 1.24 1.30 1.11 0.86 0.65 0.54 0.50 0.50 0.50 0.43 0.47 0.48 0.47 0.46 0.47 0.50 0.51 0.50 0.48 0.49 0.57 0.77 0.66 0.63 0.64 0.66 0.62 0.58 0.55 0.53 0.52 0.50 0.47 0.44 0.45 0.44 0.45 0.50 0.48
0.04 0.09 0.14 0.22 0.24 0.22 0.17 0.08 0.07 0.08 0.09 0.11 0.15 0.19 0.24 0.30 0.32 0.32 0.32 0.33 0.39 0.43 0.46 0.52 0.61 0.65 0.67 0.71 0.80 1.02 1.25 1.36 1.23 0.98 0.73 0.57 0.48 0.44 0.45 0.52 0.50 0.47 0.45 0.44 0.46 0.48 0.48 0.45 0.43 0.46 0.55 0.72 0.66 0.64 0.64 0.66 0.65 0.62 0.59 0.60 0.63 0.62 0.58 0.54 0.55 0.54 0.52 0.54 0.50
0.10 0.18 0.24 0.27 0.21 0.15 0.10 0.06 0.07 0.08 0.10 0.11 0.12 0.15 0.20 0.27 0.33 0.37 0.39 0.39 0.41 0.45 0.48 0.49 0.65 0.74 0.79 0.86 0.91 1.02 1.18 1.36 1.30 1.10 0.84 0.61 0.47 0.40 0.42 0.53 0.53 0.50 0.47 0.44 0.45 0.45 0.44 0.41 0.40 0.43 0.53 0.68 0.67 0.69 0.72 0.75 0.77 0.73 0.69 0.68 0.69 0.69 0.66 0.59 0.57 0.55 0.52 0.50 0.46
0.22 0.24 0.22 0.15 0.10 0.07 0.07 0.10 0.10 0.10 0.09 0.09 0.08 0.10 0.15 0.22 0.32 0.41 0.46 0.48 0.50 0.52 0.55 0.58 0.78 0.88 0.93 0.95 0.92 0.96 1.08 1.32 1.30 1.16 0.93 0.61 0.45 0.40 0.44 0.53 0.56 0.55 0.53 0.50 0.49 0.46 0.42 0.39 0.38 0.44 0.56 0.72 0.69 0.76 0.87 0.90 0.86 0.78 0.69 0.62 0.58 0.58 0.59 0.57 0.55 0.53 0.50 0.46 0.45